Погода в Спутнике

Россия / Самарская область     53°15′39″N   50°25′13″E
темп.,
°C
ветер,
м/с
пор.,
м/с
влажн.,
%
обл.,
%
осадки,
мм/ч
давл.,
гПа
погр.,
м
18 апреля, вс
вс1801:00+10св410645 0.0 1018243
04:00+8св510675 0.0 1019232
07:00+8св496449 0.0 1018282
10:00+12всв574787 0.0 1018569
13:00+16всв6741100 0.0 1018990
16:00+16всв673924 0.0 10181394
19:00+13всв594569 0.0 1018264
22:00+10всв6135696 0.0 1019410
19 апреля, пн
пн1901:00+8всв71370100 0.0 1021474
04:00+6всв7137464 0.0 1021470
07:00+4всв71273100 0.0 1022533
10:00+8в81062100 0.0 1022947
13:00+10в8955100 0.0 10221398
16:00+9в8957100 0.0 10241203
19:00+6в71161100 0.0 10251024
22:00+6в51159100 0.0 1026933
20 апреля, вт
вт2001:00+6вюв7115365 0.0 1027840
04:00+3в713548 0.0 1029521
07:00+2в712552 0.0 1030613
10:00+5вюв810420 0.0 1031958
13:00+8вюв810330 0.0 10301367
16:00+10вюв79290 0.0 10291531
19:00+8вюв61139100 0.0 1028475
22:00+5вюв4125295 0.0 1029375
21 апреля, ср
ср2101:00+3вюв6145524 0.0 1028514
04:00+3вюв6145399 0.0 1028559
07:00+2вюв7155277 0.0 1028636
10:00+6юв91340100 0.0 1028842
13:00+9ююв91234100 0.0 10271130
16:00+11ююв71238100 0.0 10261303
19:00+9ююв61244100 0.0 1026701
22:00+6ю51268100 0.5 10271075
22 апреля, чт
чт2201:00+6ююв61280100 0.9 1028903
04:00+5ююв61287100 2.1 1028746
07:00+5ююв61189100 0.7 1029652
10:00+5ююв51091100 0.8 1029648
13:00+5ююв5990100 0.1 1030620
16:00+6ююв5985100 0.1 1030616
19:00+4ююв5987100 0.1 1031543
22:00+3ююв5897100 0.7 1030567